Temp
-11 -12 -12 -12 -12 -12 -12 -12 -12 -12 -12 -12 -12 -12 -12 -12 -12 -12 -12 -12 -12 -12 -12 -12 -12 -12 -12 -12 -12 -12 -12 -12 -12 -12 -12 -12 -12 -12 -12 -12 -12 -12 -13 -13 -13 -13 -13 -12 -12 -12 -12 -12 -12 -12 -12 -12 -12 -12 -13 -13 -13 -13 -13
-12 -12 -12 -12 -12 -12 -12 -11 -12 -12 -12 -12 -12 -12 -12 -12 -12 -12 -12 -12 -12 -11 -11 -11 -12 -12 -12 -12 -12 -12 -12 -12 -12 -12 -12 -13 -12 -12 -12 -13 -13 -13 -13 -13 -13 -13 -12 -12 -12 -12 -12 -12 -12 -12 -12 -12 -12 -12 -13 -13 -13 -13 -13
-12 -12 -12 -12 -12 -12 -12 -12 -11 -12 -12 -12 -12 -12 -12 -12 -12 -12 -12 -12 -11 -11 -11 -11 -12 -12 -11 -12 -12 -12 -12 -12 -12 -12 -12 -12 -12 -12 -12 -13 -13 -13 -13 -13 -13 -13 -12 -12 -12 -12 -12 -12 -12 -12 -12 -12 -12 -12 -12 -13 -13 -13 -13
-13 -12 -12 -12 -12 -12 -12 -12 -12 -11 -12 -12 -12 -12 -12 -12 -12 -12 -12 -12 -11 -11 -11 -11 -11 -12 -11 -12 -12 -12 -12 -12 -12 -12 -12 -12 -12 -12 -12 -13 -13 -13 -13 -13 -13 -13 -13 -12 -13 -12 -12 -12 -12 -12 -12 -12 -12 -12 -12 -13 -13 -13 -13
-13 -13 -13 -13 -12 -12 -12 -12 -12 -12 -12 -12 -12 -12 -12 -12 -12 -12 -12 -12 -12 -11 -11 -11 -11 -12 -12 -12 -12 -12 -12 -12 -12 -12 -12 -12 -12 -12 -12 -12 -12 -12 -13 -13 -13 -13 -13 -13 -13 -13 -12 -12 -12 -12 -12 -12 -12 -12 -12 -13 -13 -13 -13
-13 -13 -13 -13 -13 -13 -12 -12 -12 -12 -12 -12 -12 -12 -12 -12 -12 -12 -12 -12 -12 -12 -12 -11 -11 -11 -12 -12 -12 -12 -12 -12 -12 -12 -12 -12 -12 -12 -12 -12 -12 -12 -13 -13 -13 -13 -13 -13 -13 -13 -12 -12 -12 -12 -12 -12 -12 -12 -12 -13 -13 -13 -13
-14 -13 -13 -13 -13 -13 -13 -13 -13 -12 -12 -12 -12 -12 -12 -12 -12 -12 -12 -12 -12 -12 -12 -11 -11 -11 -12 -12 -12 -12 -12 -12 -12 -12 -12 -12 -12 -12 -12 -12 -12 -13 -13 -13 -13 -13 -13 -13 -13 -13 -13 -13 -12 -12 -12 -12 -12 -12 -12 -13 -13 -13 -13
-14 -13 -13 -13 -13 -13 -13 -13 -13 -13 -13 -13 -12 -12 -12 -12 -12 -12 -12 -12 -12 -12 -12 -11 -11 -11 -11 -12 -12 -12 -12 -12 -12 -12 -12 -12 -12 -12 -12 -13 -13 -12 -12 -12 -13 -13 -13 -13 -13 -13 -13 -13 -13 -12 -12 -12 -12 -12 -13 -13 -13 -13 -13
-14 -14 -14 -13 -13 -13 -13 -13 -13 -13 -13 -13 -13 -12 -12 -12 -12 -12 -12 -12 -12 -12 -12 -11 -11 -11 -11 -12 -12 -12 -12 -12 -12 -12 -12 -12 -12 -12 -12 -13 -13 -12 -13 -13 -13 -13 -13 -13 -13 -13 -13 -13 -13 -13 -12 -12 -13 -13 -13 -13 -13 -13 -13
-14 -14 -14 -14 -13 -13 -13 -13 -13 -13 -13 -13 -13 -13 -13 -12 -12 -12 -12 -12 -12 -12 -12 -12 -11 -11 -11 -11 -12 -12 -12 -12 -12 -12 -12 -12 -12 -12 -12 -13 -12 -13 -13 -13 -13 -13 -13 -13 -13 -13 -13 -13 -13 -13 -13 -13 -13 -13 -13 -13 -13 -13 -13
-14 -14 -14 -14 -14 -14 -14 -14 -13 -13 -13 -13 -13 -13 -13 -13 -13 -13 -13 -12 -12 -12 -12 -12 -12 -12 -12 -12 -12 -12 -12 -12 -12 -12 -12 -12 -13 -13 -13 -13 -12 -13 -13 -13 -13 -13 -13 -13 -13 -13 -13 -13 -13 -13 -13 -13 -13 -13 -13 -13 -13 -13 -13
-14 -14 -14 -14 -14 -14 -14 -14 -14 -14 -14 -14 -14 -13 -13 -13 -13 -13 -13 -13 -12 -12 -12 -12 -12 -12 -12 -12 -12 -12 -12 -12 -12 -12 -12 -12 -13 -13 -13 -13 -12 -13 -13 -13 -13 -13 -13 -13 -13 -13 -13 -13 -13 -13 -13 -13 -13 -13 -13 -13 -13 -13 -13
-14 -14 -15 -14 -14 -14 -14 -14 -14 -14 -14 -14 -14 -14 -13 -13 -13 -13 -13 -13 -12 -12 -12 -12 -12 -12 -12 -12 -12 -12 -12 -12 -12 -12 -12 -12 -12 -13 -13 -13 -12 -13 -13 -13 -13 -13 -13 -13 -13 -13 -13 -13 -13 -13 -13 -13 -13 -13 -13 -13 -13 -13 -13
-14 -15 -15 -15 -15 -14 -14 -14 -14 -14 -14 -14 -14 -14 -13 -13 -13 -13 -13 -13 -12 -12 -12 -12 -12 -12 -12 -12 -12 -12 -12 -12 -12 -12 -12 -12 -12 -12 -13 -13 -13 -12 -12 -13 -13 -13 -13 -13 -13 -13 -13 -13 -13 -14 -13 -13 -13 -13 -13 -13 -13 -13 -13
-15 -15 -15 -15 -15 -15 -15 -15 -15 -15 -15 -14 -14 -14 -14 -14 -13 -13 -13 -13 -13 -13 -13 -12 -12 -12 -12 -12 -12 -12 -12 -12 -12 -12 -12 -12 -12 -12 -13 -13 -13 -13 -13 -13 -13 -13 -13 -13 -13 -13 -13 -13 -13 -14 -13 -13 -13 -13 -13 -13 -13 -13 -14
-15 -15 -15 -15 -15 -15 -15 -15 -15 -15 -15 -15 -15 -14 -14 -14 -13 -13 -13 -13 -13 -13 -13 -13 -12 -12 -12 -12 -12 -12 -12 -12 -12 -12 -13 -12 -12 -12 -13 -13 -13 -13 -13 -13 -13 -13 -13 -13 -13 -13 -13 -13 -13 -14 -13 -13 -14 -13 -13 -13 -13 -14 -14
-15 -15 -15 -15 -15 -15 -15 -15 -15 -15 -15 -15 -15 -15 -14 -14 -14 -14 -14 -14 -14 -13 -13 -13 -13 -13 -12 -12 -12 -12 -12 -12 -12 -12 -12 -12 -12 -12 -13 -13 -13 -13 -13 -13 -13 -13 -13 -13 -13 -13 -13 -14 -14 -14 -14 -14 -14 -14 -13 -13 -14 -14 -14
-15 -15 -15 -15 -15 -15 -15 -15 -15 -15 -15 -15 -15 -15 -15 -14 -14 -14 -14 -14 -13 -13 -13 -13 -13 -13 -13 -12 -12 -12 -12 -12 -12 -12 -12 -12 -12 -12 -13 -13 -13 -13 -13 -13 -13 -13 -13 -13 -13 -13 -14 -14 -14 -14 -14 -14 -14 -14 -14 -14 -14 -14 -14
-15 -15 -15 -15 -15 -15 -15 -15 -15 -15 -15 -15 -15 -15 -15 -15 -14 -14 -14 -14 -14 -14 -14 -14 -14 -14 -13 -13 -13 -13 -12 -12 -12 -12 -12 -12 -12 -12 -12 -13 -13 -13 -13 -13 -13 -13 -13 -13 -13 -13 -14 -14 -13 -13 -14 -14 -14 -14 -14 -14 -14 -14 -14
-15 -15 -15 -15 -15 -15 -15 -15 -15 -15 -15 -15 -15 -15 -15 -15 -15 -14 -14 -14 -14 -14 -14 -14 -14 -14 -14 -13 -13 -13 -13 -12 -12 -12 -12 -12 -12 -13 -13 -13 -13 -13 -13 -13 -13 -13 -13 -13 -13 -13 -13 -13 -13 -13 -14 -14 -14 -14 -14 -14 -14 -14 -14
-15 -15 -15 -15 -15 -15 -15 -15 -15 -15 -15 -15 -15 -15 -15 -15 -15 -15 -15 -14 -14 -15 -15 -15 -14 -14 -14 -14 -13 -13 -13 -13 -12 -12 -12 -12 -13 -13 -13 -13 -13 -13 -13 -13 -13 -13 -13 -13 -13 -13 -14 -13 -13 -14 -14 -14 -14 -14 -14 -14 -14 -14 -14
-16 -16 -16 -16 -16 -16 -15 -15 -15 -15 -15 -15 -15 -15 -15 -15 -15 -15 -15 -15 -15 -15 -15 -15 -14 -14 -14 -14 -13 -13 -13 -13 -13 -13 -12 -12 -13 -13 -13 -13 -13 -13 -13 -13 -13 -14 -14 -14 -14 -14 -14 -14 -14 -14 -14 -14 -14 -14 -14 -14 -14 -14 -14
-16 -16 -16 -16 -16 -16 -16 -15 -15 -15 -15 -15 -15 -15 -15 -15 -15 -15 -15 -15 -15 -15 -15 -15 -15 -14 -14 -14 -14 -13 -13 -13 -13 -13 -13 -12 -12 -12 -13 -13 -13 -13 -13 -13 -13 -13 -14 -14 -14 -14 -14 -14 -14 -14 -14 -14 -14 -14 -14 -14 -14 -14 -14
-16 -16 -16 -16 -16 -16 -16 -16 -15 -15 -15 -15 -15 -15 -15 -15 -15 -15 -15 -15 -15 -15 -15 -15 -15 -15 -15 -14 -14 -13 -13 -14 -14 -13 -13 -13 -12 -12 -13 -13 -13 -13 -13 -13 -13 -14 -14 -14 -14 -14 -14 -14 -14 -14 -14 -14 -14 -14 -14 -14 -14 -15 -15
-16 -16 -16 -16 -16 -16 -16 -16 -16 -15 -15 -15 -15 -15 -15 -15 -15 -15 -15 -15 -15 -15 -15 -15 -15 -15 -15 -15 -14 -14 -13 -14 -14 -14 -13 -13 -13 -13 -13 -13 -13 -13 -14 -13 -13 -14 -14 -14 -14 -14 -14 -14 -14 -14 -14 -14 -14 -14 -14 -14 -14 -15 -14
-16 -16 -16 -16 -16 -16 -16 -16 -16 -15 -15 -15 -15 -15 -15 -15 -15 -15 -15 -15 -15 -15 -15 -15 -15 -15 -15 -15 -14 -14 -14 -14 -14 -14 -14 -14 -13 -13 -13 -13 -13 -14 -14 -13 -13 -14 -14 -14 -14 -14 -14 -14 -14 -14 -14 -14 -14 -14 -14 -14 -15 -15 -14
-16 -16 -16 -16 -16 -16 -16 -16 -16 -16 -15 -15 -15 -15 -15 -15 -15 -15 -15 -15 -15 -15 -15 -15 -15 -15 -15 -15 -15 -14 -14 -14 -14 -14 -14 -14 -14 -14 -14 -14 -14 -14 -13 -13 -13 -14 -14 -14 -14 -14 -14 -14 -14 -15 -15 -14 -14 -14 -15 -15 -15 -15 -14
-16 -16 -16 -16 -16 -16 -16 -16 -16 -16 -16 -15 -15 -15 -15 -15 -15 -15 -15 -15 -15 -15 -15 -15 -15 -15 -15 -15 -15 -14 -14 -14 -14 -14 -14 -14 -14 -14 -14 -14 -13 -13 -13 -14 -14 -14 -14 -14 -14 -14 -14 -14 -15 -15 -15 -15 -14 -14 -15 -15 -15 -15 -15
-16 -16 -16 -16 -16 -16 -16 -16 -16 -16 -16 -16 -15 -15 -15 -15 -15 -15 -15 -15 -15 -15 -15 -15 -15 -15 -15 -15 -15 -15 -14 -14 -14 -14 -14 -14 -14 -14 -14 -14 -13 -14 -14 -14 -14 -14 -14 -14 -14 -14 -14 -14 -15 -15 -15 -15 -15 -15 -15 -15 -15 -15 -15
-16 -16 -16 -16 -16 -16 -16 -16 -16 -16 -16 -16 -16 -15 -15 -15 -15 -15 -15 -15 -15 -15 -15 -15 -15 -15 -15 -15 -15 -15 -15 -14 -14 -14 -14 -14 -14 -14 -14 -14 -14 -14 -14 -14 -14 -14 -14 -14 -14 -14 -14 -15 -15 -15 -15 -15 -15 -15 -15 -15 -15 -15 -15
-16 -16 -16 -16 -16 -16 -16 -16 -16 -16 -16 -16 -16 -16 -15 -15 -15 -15 -15 -15 -15 -15 -15 -15 -15 -15 -15 -15 -15 -15 -15 -14 -14 -14 -14 -14 -14 -14 -14 -14 -14 -14 -14 -14 -14 -14 -14 -14 -14 -14 -14 -15 -15 -15 -15 -15 -15 -15 -15 -15 -16 -16 -16
-16 -16 -16 -16 -16 -16 -16 -16 -16 -16 -16 -16 -16 -16 -16 -15 -15 -15 -15 -15 -15 -15 -15 -15 -15 -15 -15 -15 -15 -15 -15 -15 -15 -14 -14 -14 -14 -15 -15 -14 -14 -14 -14 -14 -14 -14 -14 -14 -14 -15 -15 -15 -15 -15 -15 -15 -15 -15 -15 -16 -16 -16 -16
-16 -16 -16 -16 -16 -16 -16 -16 -16 -16 -16 -16 -16 -16 -16 -16 -15 -15 -15 -15 -15 -15 -15 -15 -15 -15 -15 -15 -15 -15 -15 -15 -15 -15 -14 -14 -15 -15 -15 -14 -14 -14 -15 -15 -14 -14 -14 -14 -14 -15 -15 -15 -15 -15 -15 -15 -15 -15 -16 -16 -16 -16 -16
-17 -17 -16 -16 -16 -16 -16 -16 -16 -16 -16 -16 -16 -16 -16 -16 -16 -16 -15 -15 -15 -15 -15 -15 -15 -15 -15 -15 -15 -15 -15 -15 -15 -15 -15 -15 -15 -15 -15 -15 -14 -14 -15 -15 -14 -14 -14 -14 -14 -15 -14 -14 -15 -15 -15 -15 -15 -16 -16 -16 -16 -16 -16
-17 -17 -17 -17 -17 -17 -16 -16 -16 -16 -16 -16 -16 -16 -16 -16 -16 -16 -16 -15 -15 -15 -15 -15 -15 -15 -15 -15 -15 -15 -15 -15 -15 -15 -15 -15 -15 -15 -15 -15 -14 -14 -15 -15 -14 -14 -14 -15 -15 -15 -15 -15 -15 -15 -15 -15 -15 -16 -16 -16 -16 -16 -16
-17 -17 -17 -17 -17 -17 -17 -17 -17 -17 -17 -17 -17 -17 -16 -16 -16 -16 -16 -16 -16 -16 -15 -15 -15 -15 -15 -15 -15 -15 -15 -15 -15 -15 -15 -15 -15 -15 -15 -15 -15 -14 -15 -15 -15 -15 -15 -15 -15 -15 -15 -15 -15 -15 -15 -15 -15 -15 -16 -16 -16 -16 -16
-18 -18 -18 -18 -18 -18 -17 -17 -17 -17 -17 -17 -17 -17 -17 -17 -16 -16 -16 -16 -16 -16 -16 -15 -15 -15 -15 -15 -15 -15 -15 -15 -15 -15 -15 -15 -15 -15 -15 -15 -15 -15 -15 -15 -15 -15 -15 -15 -15 -15 -15 -15 -15 -15 -16 -16 -16 -16 -16 -16 -16 -16 -16
Height
5802 5801 5801 5800 5799 5798 5797 5795 5794 5794 5794 5792 5791 5790 5789 5787 5787 5787 5787 5787 5786 5785 5783 5781 5781 5781 5781 5782 5786 5789 5790 5790 5792 5793 5793 5794 5794 5795 5795 5796 5797 5799 5800 5801 5802 5802 5803 5804 5804 5804 5805 5805 5805 5805 5805 5806 5806 5807 5806 5807 5807 5807 5806
5800 5799 5798 5798 5797 5796 5794 5792 5791 5791 5791 5791 5789 5787 5786 5785 5784 5784 5784 5784 5783 5782 5780 5778 5777 5777 5777 5778 5781 5785 5787 5787 5789 5790 5790 5791 5791 5792 5793 5794 5795 5796 5798 5799 5800 5801 5802 5802 5802 5803 5803 5803 5803 5803 5803 5804 5804 5805 5805 5805 5805 5805 5805
5798 5797 5796 5795 5794 5793 5791 5790 5789 5788 5788 5788 5786 5785 5784 5782 5781 5781 5781 5780 5780 5778 5776 5775 5775 5774 5773 5774 5777 5779 5782 5784 5786 5787 5788 5789 5789 5790 5791 5793 5793 5794 5796 5797 5798 5798 5799 5800 5801 5801 5802 5801 5801 5801 5802 5802 5803 5803 5803 5803 5804 5804 5804
5795 5794 5793 5792 5791 5790 5789 5787 5786 5786 5785 5784 5783 5782 5781 5780 5779 5778 5778 5778 5777 5774 5773 5773 5773 5773 5772 5772 5774 5776 5778 5780 5783 5784 5785 5787 5788 5788 5789 5790 5791 5792 5794 5795 5795 5796 5797 5798 5799 5799 5799 5800 5800 5799 5800 5801 5801 5802 5802 5802 5802 5803 5803
5792 5791 5790 5789 5788 5787 5786 5785 5783 5783 5781 5780 5779 5779 5778 5777 5776 5775 5775 5775 5775 5773 5771 5772 5772 5771 5771 5771 5772 5774 5776 5778 5780 5781 5781 5784 5785 5786 5786 5787 5788 5790 5791 5792 5793 5794 5795 5796 5797 5797 5798 5798 5798 5798 5798 5799 5800 5800 5800 5800 5800 5801 5801
5789 5788 5787 5786 5785 5784 5783 5781 5780 5779 5778 5776 5775 5775 5774 5774 5773 5773 5773 5772 5773 5772 5771 5771 5770 5769 5769 5769 5771 5773 5775 5776 5777 5777 5778 5781 5783 5784 5784 5785 5786 5788 5788 5789 5791 5791 5792 5793 5795 5795 5796 5796 5796 5796 5797 5797 5798 5799 5799 5798 5798 5799 5799
5786 5785 5784 5783 5782 5781 5780 5778 5776 5775 5774 5773 5772 5771 5771 5771 5770 5770 5770 5770 5770 5770 5770 5769 5769 5768 5767 5768 5769 5771 5772 5773 5774 5774 5775 5778 5780 5781 5783 5783 5784 5785 5786 5787 5788 5789 5790 5791 5792 5793 5794 5794 5795 5795 5795 5795 5795 5796 5797 5796 5796 5797 5797
5783 5782 5781 5780 5779 5778 5776 5774 5772 5771 5771 5770 5769 5768 5768 5767 5766 5766 5767 5767 5768 5768 5768 5768 5767 5766 5766 5767 5768 5769 5770 5771 5772 5772 5773 5775 5777 5779 5780 5780 5781 5782 5783 5784 5785 5786 5788 5789 5790 5791 5791 5792 5793 5793 5793 5793 5793 5794 5794 5795 5795 5795 5795
5780 5779 5778 5777 5775 5774 5772 5770 5768 5767 5767 5767 5766 5766 5765 5764 5763 5763 5763 5764 5765 5766 5766 5766 5765 5766 5765 5766 5767 5767 5769 5770 5770 5771 5771 5773 5775 5776 5776 5777 5778 5779 5780 5781 5783 5784 5785 5786 5787 5788 5789 5789 5790 5791 5791 5791 5791 5791 5792 5793 5793 5793 5793
5776 5775 5774 5773 5772 5770 5769 5767 5765 5764 5763 5763 5763 5764 5763 5761 5759 5759 5760 5761 5762 5763 5763 5763 5764 5764 5764 5764 5764 5765 5767 5767 5768 5769 5769 5771 5772 5772 5773 5775 5775 5776 5777 5779 5780 5781 5782 5783 5784 5785 5786 5786 5787 5788 5788 5788 5788 5789 5790 5790 5791 5791 5790
5773 5772 5771 5770 5768 5767 5766 5764 5762 5760 5759 5758 5758 5759 5759 5757 5755 5756 5757 5757 5758 5759 5760 5761 5761 5761 5761 5761 5761 5762 5763 5765 5765 5766 5766 5768 5769 5769 5770 5772 5773 5773 5774 5775 5777 5778 5779 5780 5781 5783 5783 5784 5784 5785 5786 5786 5786 5786 5787 5787 5788 5788 5788
5770 5769 5768 5767 5766 5764 5763 5761 5759 5757 5756 5755 5754 5754 5754 5753 5753 5753 5754 5754 5755 5756 5756 5757 5758 5758 5758 5759 5758 5758 5759 5761 5762 5762 5763 5764 5766 5767 5767 5768 5770 5770 5771 5772 5774 5775 5776 5777 5778 5779 5780 5781 5782 5783 5783 5783 5783 5783 5784 5785 5785 5785 5785
5767 5766 5765 5764 5763 5761 5760 5758 5757 5755 5753 5751 5751 5751 5750 5750 5750 5750 5750 5751 5751 5752 5753 5753 5754 5755 5756 5756 5756 5756 5756 5757 5759 5760 5760 5761 5763 5764 5765 5766 5767 5767 5768 5769 5771 5773 5773 5774 5775 5776 5777 5778 5780 5780 5780 5780 5781 5781 5781 5782 5782 5782 5783
5764 5763 5762 5761 5760 5758 5757 5755 5754 5752 5750 5748 5747 5748 5747 5746 5746 5747 5747 5748 5748 5748 5749 5749 5750 5751 5752 5753 5753 5753 5753 5754 5756 5756 5757 5758 5759 5760 5761 5762 5763 5764 5766 5767 5768 5769 5770 5771 5772 5773 5774 5775 5777 5778 5777 5777 5778 5779 5779 5780 5780 5780 5781
5761 5760 5759 5758 5757 5755 5754 5752 5751 5749 5748 5745 5744 5744 5743 5742 5742 5743 5743 5744 5744 5744 5745 5746 5747 5747 5748 5749 5750 5750 5750 5751 5752 5753 5754 5754 5755 5756 5757 5758 5759 5761 5762 5763 5763 5765 5767 5767 5769 5770 5771 5772 5773 5774 5775 5775 5776 5776 5777 5778 5777 5778 5778
5758 5757 5756 5755 5753 5752 5751 5750 5748 5747 5745 5743 5741 5740 5739 5738 5738 5738 5738 5739 5739 5739 5740 5741 5743 5744 5745 5745 5746 5747 5747 5748 5748 5749 5750 5751 5751 5751 5753 5754 5755 5757 5757 5758 5759 5762 5763 5764 5765 5767 5768 5769 5770 5771 5771 5772 5773 5774 5774 5774 5774 5774 5775
5755 5754 5753 5751 5750 5749 5748 5747 5746 5744 5743 5741 5739 5736 5735 5734 5734 5734 5735 5735 5735 5736 5737 5737 5738 5740 5740 5742 5742 5742 5743 5745 5745 5745 5745 5746 5747 5747 5749 5750 5751 5753 5753 5754 5756 5758 5759 5761 5761 5763 5765 5766 5767 5768 5768 5768 5770 5771 5771 5771 5771 5771 5772
5752 5750 5749 5748 5747 5746 5744 5743 5742 5742 5740 5739 5736 5734 5731 5730 5730 5731 5731 5731 5731 5733 5734 5734 5733 5734 5736 5738 5738 5738 5739 5741 5742 5742 5742 5743 5744 5744 5745 5746 5748 5749 5749 5751 5752 5754 5755 5757 5758 5759 5761 5762 5763 5764 5764 5765 5766 5767 5767 5767 5767 5767 5769
5748 5747 5746 5745 5743 5742 5741 5740 5739 5738 5737 5736 5734 5732 5729 5727 5726 5727 5727 5727 5727 5729 5729 5729 5729 5729 5731 5733 5734 5734 5736 5737 5738 5739 5738 5739 5740 5740 5741 5742 5744 5745 5746 5748 5749 5750 5751 5753 5754 5755 5757 5759 5760 5760 5761 5762 5762 5762 5763 5764 5764 5764 5765
5745 5744 5742 5741 5740 5739 5738 5737 5735 5735 5734 5733 5731 5729 5727 5725 5723 5723 5723 5722 5722 5724 5725 5725 5725 5726 5726 5727 5729 5730 5731 5733 5735 5735 5735 5735 5735 5736 5736 5738 5739 5740 5743 5745 5745 5746 5748 5749 5751 5752 5753 5756 5757 5756 5757 5758 5758 5758 5759 5760 5760 5760 5761
5742 5741 5740 5738 5737 5736 5734 5733 5732 5731 5731 5730 5728 5726 5725 5723 5721 5719 5718 5717 5717 5719 5720 5720 5720 5721 5722 5723 5724 5724 5726 5728 5730 5731 5731 5731 5732 5732 5732 5733 5735 5736 5738 5741 5742 5743 5744 5745 5746 5748 5749 5751 5752 5751 5752 5754 5754 5754 5755 5757 5757 5756 5756
5739 5738 5737 5735 5734 5732 5731 5730 5728 5727 5727 5726 5725 5724 5722 5720 5719 5717 5715 5714 5714 5715 5715 5715 5716 5717 5717 5719 5720 5720 5721 5723 5725 5726 5726 5727 5728 5728 5727 5728 5730 5732 5734 5736 5737 5737 5738 5739 5741 5742 5744 5746 5747 5747 5748 5749 5750 5750 5752 5753 5753 5752 5752
5735 5734 5733 5732 5731 5729 5728 5727 5725 5724 5723 5722 5722 5721 5719 5718 5716 5715 5713 5712 5712 5712 5712 5711 5712 5713 5713 5714 5715 5715 5716 5717 5718 5720 5722 5723 5724 5724 5723 5723 5724 5726 5729 5730 5731 5732 5733 5736 5737 5738 5739 5741 5742 5743 5744 5745 5745 5746 5749 5749 5748 5748 5749
5731 5730 5729 5728 5727 5726 5725 5723 5722 5721 5719 5718 5718 5717 5716 5715 5713 5713 5711 5710 5710 5710 5709 5708 5708 5709 5709 5709 5711 5711 5711 5711 5712 5714 5716 5718 5719 5719 5719 5718 5720 5722 5723 5725 5726 5727 5729 5731 5733 5734 5735 5736 5738 5739 5739 5740 5741 5743 5745 5744 5744 5745 5744
5727 5726 5725 5724 5723 5722 5721 5720 5719 5717 5716 5714 5714 5713 5712 5711 5710 5710 5709 5708 5707 5707 5706 5706 5706 5706 5705 5705 5706 5707 5708 5708 5709 5709 5711 5713 5714 5714 5715 5715 5716 5718 5719 5720 5721 5723 5724 5727 5728 5730 5731 5732 5733 5734 5735 5736 5737 5739 5740 5741 5741 5741 5741
5723 5722 5721 5720 5719 5718 5717 5716 5715 5714 5712 5711 5710 5709 5709 5708 5707 5706 5705 5705 5704 5704 5703 5703 5704 5703 5701 5701 5702 5703 5703 5705 5705 5705 5705 5707 5708 5710 5711 5711 5712 5714 5715 5715 5717 5718 5720 5722 5723 5725 5726 5727 5728 5729 5730 5731 5733 5735 5736 5737 5737 5738 5737
5718 5718 5717 5716 5715 5714 5713 5712 5711 5710 5709 5707 5706 5705 5705 5704 5703 5702 5702 5701 5701 5701 5700 5700 5700 5700 5699 5698 5699 5699 5699 5700 5700 5700 5700 5701 5704 5706 5706 5706 5708 5709 5710 5710 5713 5715 5715 5716 5718 5720 5721 5722 5723 5724 5726 5727 5728 5730 5731 5732 5733 5734 5733
5714 5713 5712 5711 5710 5709 5708 5707 5706 5706 5705 5704 5703 5702 5701 5700 5699 5699 5698 5697 5697 5697 5697 5697 5697 5696 5695 5695 5696 5696 5696 5695 5695 5696 5696 5697 5700 5701 5701 5702 5703 5705 5705 5707 5710 5711 5710 5711 5713 5714 5716 5717 5719 5720 5720 5721 5722 5723 5725 5727 5728 5729 5729
5708 5708 5707 5706 5706 5705 5704 5703 5702 5701 5700 5699 5698 5698 5697 5696 5695 5694 5694 5693 5693 5693 5693 5693 5693 5693 5692 5692 5692 5692 5692 5692 5692 5693 5693 5694 5695 5696 5696 5698 5699 5700 5702 5703 5704 5704 5704 5705 5707 5710 5712 5712 5713 5714 5715 5715 5716 5718 5720 5721 5722 5723 5724
5702 5702 5701 5701 5700 5699 5699 5698 5698 5697 5695 5695 5694 5693 5692 5692 5691 5690 5690 5689 5689 5689 5689 5689 5689 5689 5688 5688 5688 5688 5688 5688 5688 5689 5690 5690 5690 5690 5692 5694 5694 5696 5698 5698 5697 5699 5700 5700 5702 5706 5706 5705 5707 5709 5709 5710 5712 5713 5715 5716 5716 5717 5718
5696 5696 5695 5694 5694 5694 5693 5692 5692 5692 5691 5690 5689 5689 5688 5687 5686 5686 5686 5685 5685 5684 5684 5684 5684 5684 5684 5684 5684 5684 5684 5683 5683 5685 5686 5685 5685 5686 5687 5688 5689 5692 5692 5692 5693 5696 5697 5696 5699 5701 5700 5699 5702 5704 5704 5705 5707 5708 5709 5711 5711 5712 5713
5690 5689 5689 5688 5688 5687 5687 5686 5686 5686 5685 5685 5684 5683 5683 5682 5681 5681 5681 5681 5680 5680 5679 5679 5679 5679 5679 5680 5680 5680 5679 5678 5678 5680 5681 5681 5681 5681 5682 5683 5685 5687 5687 5687 5689 5690 5691 5692 5694 5694 5694 5694 5697 5699 5699 5700 5702 5702 5704 5705 5706 5707 5708
5684 5683 5682 5681 5681 5680 5680 5680 5679 5679 5679 5678 5678 5677 5677 5677 5676 5676 5675 5675 5675 5675 5674 5674 5674 5674 5675 5675 5675 5675 5675 5674 5673 5675 5676 5675 5676 5676 5677 5677 5680 5681 5681 5682 5684 5684 5685 5686 5687 5688 5688 5690 5693 5694 5694 5695 5696 5697 5698 5699 5700 5701 5702
5678 5677 5676 5674 5674 5673 5672 5672 5672 5671 5671 5671 5671 5671 5670 5670 5670 5670 5670 5669 5670 5670 5669 5669 5669 5669 5669 5670 5670 5670 5670 5669 5669 5669 5669 5669 5670 5671 5671 5672 5674 5676 5676 5676 5677 5678 5680 5681 5682 5682 5683 5685 5687 5687 5688 5689 5690 5691 5692 5693 5694 5695 5696
5671 5670 5669 5667 5666 5665 5664 5664 5664 5663 5663 5663 5664 5664 5664 5663 5663 5663 5663 5663 5664 5664 5664 5664 5663 5663 5664 5664 5665 5665 5664 5664 5663 5664 5664 5664 5665 5666 5666 5666 5668 5670 5671 5671 5671 5673 5674 5675 5676 5677 5677 5679 5681 5681 5682 5683 5684 5685 5687 5688 5689 5690 5691
5665 5663 5662 5661 5659 5658 5657 5656 5655 5655 5655 5655 5655 5656 5656 5656 5656 5656 5656 5657 5657 5657 5657 5658 5658 5658 5658 5658 5659 5659 5659 5658 5658 5658 5659 5660 5660 5661 5661 5661 5662 5664 5666 5666 5666 5667 5668 5669 5670 5671 5672 5673 5675 5676 5677 5678 5678 5679 5681 5683 5684 5685 5686
5658 5656 5655 5653 5652 5651 5650 5649 5648 5647 5647 5646 5647 5647 5648 5649 5649 5649 5649 5650 5650 5650 5651 5651 5651 5652 5652 5652 5653 5653 5653 5653 5652 5652 5653 5654 5655 5656 5656 5656 5657 5658 5660 5660 5660 5661 5662 5663 5664 5665 5666 5668 5669 5670 5671 5673 5673 5675 5676 5678 5679 5681 5681
Wind_Speed
25 25 24 24 25 27 30 33 33 32 31 31 31 30 30 31 32 31 31 31 32 32 35 36 33 30 29 28 30 29 28 30 29 27 27 26 24 23 23 22 22 21 20 19 17 15 15 15 15 14 13 13 12 11 12 12 11 11 11 11 11 11 10
25 26 26 26 26 28 30 33 34 34 32 30 31 30 30 32 32 32 31 31 32 32 34 35 29 26 26 25 27 28 28 28 28 27 26 26 25 24 23 22 22 21 20 19 17 16 16 16 16 15 14 13 13 12 12 12 12 11 11 11 10 10 11
25 26 27 28 28 29 30 33 34 35 35 33 33 32 31 32 32 33 33 32 32 32 34 33 24 18 21 24 25 26 27 26 27 26 25 26 26 24 22 22 23 22 20 19 17 17 17 17 16 16 15 14 13 13 13 12 12 12 12 12 11 10 11
27 27 29 29 29 30 31 32 33 34 36 35 35 35 34 33 33 34 34 33 31 31 33 30 21 15 17 23 26 26 27 26 26 27 26 27 27 25 23 23 23 22 21 19 17 18 18 17 17 17 17 15 13 13 14 13 13 13 12 12 12 11 11
27 29 30 30 30 31 31 33 33 33 35 36 36 36 36 36 36 35 34 33 31 30 29 26 23 21 20 24 27 27 27 26 26 28 28 27 26 25 24 24 24 22 21 19 18 19 19 17 17 17 17 15 13 14 15 14 14 13 12 13 13 12 12
27 29 30 31 31 31 32 33 34 34 35 37 38 37 36 37 37 35 33 33 31 29 27 25 26 26 24 26 27 26 27 26 25 26 28 27 26 26 25 25 23 21 21 20 19 19 19 18 18 18 17 15 14 15 16 15 15 14 13 14 14 13 13
27 29 30 31 32 32 33 34 36 37 36 37 37 37 37 37 36 35 34 33 32 30 26 24 25 24 23 25 27 26 26 25 22 22 25 26 26 25 24 24 23 22 22 20 19 20 21 20 18 18 17 16 16 16 17 17 16 15 14 15 15 14 14
28 30 31 32 33 34 35 35 37 38 37 37 37 36 37 37 36 35 34 32 32 31 26 23 22 22 22 24 26 26 26 25 23 22 25 27 27 25 25 25 24 23 22 21 21 21 21 20 19 19 18 18 17 17 17 18 17 17 16 16 16 16 15
29 30 32 33 34 36 37 37 38 39 39 39 37 35 35 36 37 35 34 32 31 31 28 23 21 21 22 24 26 27 27 26 26 26 28 28 27 27 27 26 25 23 23 22 22 22 22 21 20 20 20 19 18 18 18 18 19 18 17 17 17 17 16
28 29 31 32 34 36 38 39 39 40 41 40 39 37 34 33 35 34 33 32 31 31 30 25 22 22 23 24 27 28 28 28 29 29 30 29 28 28 28 27 26 24 24 23 23 23 24 23 21 21 21 21 20 19 19 19 20 19 18 18 17 17 18
29 29 29 30 31 33 35 38 39 39 40 39 39 39 36 33 33 33 33 32 30 30 31 27 24 23 23 25 27 28 29 29 29 30 30 30 29 29 28 27 25 24 25 25 25 24 24 23 22 22 23 23 22 20 19 19 20 19 18 19 18 18 18
29 29 28 29 30 31 33 36 37 37 37 36 34 34 35 34 34 33 32 32 30 30 31 29 27 25 24 25 27 28 29 30 29 30 30 30 30 29 28 28 26 25 26 26 25 24 23 24 24 24 25 25 23 21 20 19 19 19 19 20 20 19 19
28 28 28 28 29 31 32 35 37 37 37 36 33 33 33 33 34 34 32 31 31 30 31 31 29 27 24 24 26 27 29 30 30 30 31 31 31 31 31 30 28 28 28 27 26 25 27 27 26 26 26 26 24 22 20 18 19 20 20 21 21 20 20
28 28 28 28 29 30 31 33 35 36 37 37 36 35 34 32 33 34 32 31 31 31 32 32 32 30 26 25 25 25 27 29 30 31 32 33 33 33 33 32 31 31 29 28 29 29 29 28 27 27 27 27 25 22 19 18 19 21 22 22 22 22 20
28 28 28 28 28 29 30 32 33 33 34 36 37 36 35 33 32 31 30 30 30 30 32 33 33 32 30 27 26 26 28 28 29 30 32 32 33 33 32 32 33 32 30 30 30 30 29 28 28 28 28 27 25 22 20 19 20 22 23 24 24 23 21
29 29 29 28 28 29 29 30 30 31 32 34 35 36 36 34 32 31 31 31 31 31 30 31 33 33 32 30 28 28 29 29 29 30 30 31 33 33 32 32 33 33 32 30 30 29 29 29 29 29 28 27 24 22 22 22 23 24 25 25 25 25 23
29 29 29 29 28 28 29 29 29 29 29 31 33 35 36 34 32 31 31 31 32 32 31 30 29 31 33 32 30 30 29 29 28 28 29 30 32 33 33 33 33 33 33 31 30 31 31 30 30 30 29 26 23 22 23 25 26 26 26 26 26 26 25
29 29 29 29 28 28 28 29 29 28 28 29 30 32 35 34 32 31 29 30 32 33 33 31 27 28 31 31 31 31 30 30 29 29 29 29 31 33 34 34 34 34 35 33 32 33 31 30 30 31 30 26 23 24 25 27 28 28 27 27 27 27 26
29 29 29 29 29 28 28 29 29 28 27 29 29 29 31 32 30 29 29 31 31 31 33 33 28 26 27 28 31 32 32 31 30 31 30 29 30 33 34 34 34 36 37 35 33 33 33 32 31 31 30 27 26 29 28 28 29 29 28 27 27 27 26
29 29 29 29 29 29 29 29 29 28 27 28 28 28 28 28 26 27 29 31 31 30 32 34 32 28 27 27 30 32 34 34 32 31 31 31 32 34 35 35 35 38 39 37 35 34 33 33 32 32 32 29 30 32 29 27 29 29 28 27 27 27 27
28 28 29 29 29 29 29 30 30 29 27 27 28 28 27 26 24 24 28 31 31 28 29 34 34 31 29 29 29 30 33 35 33 32 31 32 33 34 36 37 37 39 40 39 37 35 33 34 34 34 33 30 30 32 30 28 29 30 29 28 27 27 28
29 29 29 29 30 30 30 30 31 32 29 27 27 28 28 27 25 24 25 29 30 27 26 31 34 32 31 31 29 28 31 34 34 34 33 33 33 34 36 37 39 40 39 39 39 37 36 35 35 34 33 30 30 31 30 28 28 28 27 27 27 27 29
32 32 31 30 31 31 31 30 31 33 32 29 28 28 28 27 27 25 25 26 27 26 26 29 32 31 31 33 30 28 29 31 33 35 36 35 35 36 37 38 40 40 39 39 41 41 38 36 35 34 33 31 31 32 32 30 29 27 26 27 27 27 29
35 35 34 33 33 33 33 31 31 32 33 32 30 29 28 28 27 27 27 26 25 25 25 28 30 30 30 33 32 30 29 29 30 33 34 34 34 34 35 37 39 40 40 40 42 41 38 35 36 35 34 33 33 32 32 32 32 29 27 28 28 27 29
36 35 35 35 35 35 35 34 32 31 32 32 31 30 29 28 28 28 28 27 27 25 25 26 28 28 29 30 31 32 32 30 29 30 31 32 34 33 34 36 38 39 39 39 39 39 38 37 37 37 37 37 35 33 33 34 33 30 28 28 28 28 30
36 36 37 37 36 36 36 35 34 32 31 31 31 31 31 30 29 29 28 28 28 28 28 27 26 28 30 30 29 31 32 30 29 29 30 32 33 33 34 37 39 39 39 39 38 38 39 40 40 40 39 39 37 35 35 36 36 35 33 32 30 29 30
38 38 38 38 37 36 36 36 35 33 32 31 31 31 31 31 31 30 29 29 28 28 29 29 28 29 31 30 29 29 30 30 29 29 30 31 32 34 37 39 38 38 38 38 38 39 40 41 41 41 40 39 38 37 37 37 38 38 38 36 34 33 34
40 40 39 38 36 34 33 35 35 35 33 33 32 31 31 32 32 32 31 31 29 29 29 29 30 31 31 31 30 29 30 31 30 30 31 32 32 35 39 39 37 37 38 39 40 42 43 41 41 42 41 39 38 37 38 38 39 38 37 36 35 36 37
41 41 40 39 38 36 35 34 35 36 35 34 34 33 32 31 32 33 33 32 32 31 30 29 30 31 32 32 32 31 31 31 31 31 32 33 34 37 39 39 38 38 41 42 42 41 41 41 41 41 41 40 39 38 38 39 39 38 36 36 37 37 37
43 43 42 42 41 40 38 36 35 36 36 36 35 34 33 32 32 33 33 34 33 33 32 31 30 31 32 32 32 32 32 33 32 32 32 34 36 38 38 40 41 38 38 40 42 40 38 39 40 38 38 40 40 39 40 40 39 39 38 38 38 38 38
44 43 43 43 42 41 40 38 37 36 36 36 35 35 34 33 33 32 33 34 34 34 34 33 33 32 32 32 32 31 32 34 34 33 33 35 37 37 37 40 43 40 37 38 41 40 40 41 42 40 39 41 41 40 42 42 40 41 40 39 39 39 39
46 46 46 46 45 44 44 43 42 40 39 38 37 36 35 35 35 34 33 33 34 34 35 35 34 34 34 33 32 31 32 35 36 34 34 36 37 39 41 42 43 42 41 40 41 42 42 42 45 47 47 46 44 41 42 42 42 41 41 40 40 40 40
49 50 50 50 50 50 49 48 48 46 44 42 42 40 39 37 37 37 36 35 34 34 34 35 35 35 35 34 33 32 33 36 36 35 36 37 38 39 42 43 43 43 43 43 43 43 42 41 43 47 49 46 42 41 42 43 43 42 42 41 40 40 40
53 53 53 53 53 53 53 52 51 50 49 47 45 45 44 42 40 38 38 37 36 34 34 34 35 36 36 35 35 34 34 36 37 37 37 38 38 38 40 43 45 45 43 43 44 45 43 42 43 46 48 46 44 43 44 44 44 44 43 42 41 40 39
54 54 54 55 55 55 55 55 54 53 51 50 48 46 46 46 44 42 40 39 39 38 36 35 35 36 36 36 35 35 36 37 39 39 38 38 39 40 41 43 46 47 45 43 44 45 45 45 45 46 48 49 47 46 45 46 46 46 45 43 41 40 40
53 54 54 55 55 55 55 56 56 55 54 52 50 48 47 47 46 44 42 40 40 40 39 38 37 36 37 36 36 36 37 38 41 42 40 41 42 43 44 45 46 48 47 43 42 44 45 46 46 44 45 46 47 47 46 46 47 47 46 44 43 41 40
54 54 55 55 56 56 56 56 56 56 56 54 53 51 49 47 46 46 44 42 41 41 41 40 39 38 38 37 36 37 37 38 41 43 41 43 45 44 45 48 49 50 49 45 43 44 45 46 45 44 44 45 46 45 44 44 44 45 45 45 44 43 41
Wind_Direction
295 296 294 292 289 288 287 288 287 288 291 292 290 289 288 286 285 285 287 288 288 290 291 289 282 274 269 260 249 241 240 240 239 242 240 233 230 231 232 235 239 243 244 244 248 252 254 259 260 259 261 264 268 272 272 273 275 277 278 279 281 279 278
294 294 294 292 289 286 286 286 286 287 288 290 291 289 288 286 285 286 286 286 287 289 291 288 278 269 263 252 243 239 237 237 237 240 238 233 232 233 232 234 237 240 242 243 245 248 250 255 258 258 257 258 261 264 269 271 270 273 278 279 279 277 275
294 293 293 291 289 287 286 286 286 287 288 287 288 288 289 288 289 291 288 287 289 290 294 289 271 262 259 243 236 237 234 234 237 239 235 232 235 235 234 236 237 238 241 241 241 245 248 251 255 256 255 256 260 264 267 268 268 271 276 278 277 273 271
292 291 291 290 290 289 288 287 286 287 287 286 284 283 285 287 290 294 291 289 289 289 296 290 268 264 259 239 233 235 233 233 235 238 234 229 233 235 236 237 236 237 240 241 241 244 248 250 253 255 255 255 259 264 266 266 266 267 271 274 273 270 268
290 290 290 290 291 291 290 289 287 286 286 285 284 281 281 283 286 291 291 290 287 285 292 292 283 282 267 242 234 233 234 236 239 242 236 228 232 237 236 235 233 233 237 240 242 244 247 250 252 253 254 256 260 263 264 265 265 263 265 268 268 268 267
288 287 288 289 291 292 292 291 289 288 287 286 285 282 281 282 282 285 287 286 284 283 285 290 291 286 267 246 237 232 235 240 245 243 231 227 236 238 234 234 234 234 236 239 241 242 246 250 249 249 252 256 260 261 261 262 262 260 261 264 266 267 267
286 285 286 287 289 290 291 290 288 287 287 287 286 283 282 281 281 280 281 282 281 279 280 284 288 284 265 246 237 234 236 240 245 239 228 232 239 237 235 237 237 237 238 237 239 243 247 248 248 248 250 251 253 256 259 260 261 260 259 260 263 265 266
287 287 287 286 286 287 287 288 287 287 286 287 288 288 284 280 278 277 277 277 276 275 276 279 283 281 264 247 238 237 238 239 241 238 235 237 238 237 240 240 237 237 238 235 238 246 248 247 248 249 248 250 250 253 257 260 261 260 257 257 260 264 266
290 289 288 286 284 285 286 287 288 289 287 286 288 291 289 280 275 275 275 274 273 272 271 271 276 274 262 250 243 241 240 239 239 240 240 240 239 241 244 241 237 236 237 237 237 243 248 249 249 248 248 251 250 250 253 256 258 258 257 256 257 262 266
292 290 288 286 284 284 285 287 289 289 290 289 286 287 289 282 274 273 276 275 272 270 268 265 266 267 260 252 246 243 241 239 240 241 243 243 242 244 243 239 237 237 239 239 235 236 244 249 248 248 249 249 248 248 249 253 257 258 258 258 258 260 264
294 292 290 289 287 286 286 287 289 290 290 291 288 283 281 280 278 275 276 277 273 268 265 262 260 262 261 253 246 243 242 242 243 245 245 244 243 244 244 241 240 241 242 242 240 239 244 247 248 249 250 249 248 248 247 251 257 259 260 261 261 260 262
296 295 293 292 291 290 289 289 289 291 291 291 292 286 278 277 281 277 274 276 274 266 263 261 258 258 259 255 247 242 243 244 244 246 246 244 242 243 247 249 246 242 242 243 241 243 248 249 249 250 251 251 252 248 247 251 256 259 261 263 263 262 262
296 296 295 295 295 293 292 291 290 291 292 292 293 292 285 279 279 277 273 274 273 266 262 261 259 256 257 257 252 246 246 245 244 246 246 244 245 247 251 252 248 242 240 240 239 243 249 250 249 250 249 252 253 247 247 254 256 259 263 265 265 265 264
296 296 297 297 298 297 295 294 293 292 292 292 292 291 288 282 277 275 272 271 271 267 262 261 260 257 255 256 256 252 250 247 245 246 247 246 247 250 251 250 245 241 239 238 240 243 246 247 249 248 248 250 250 244 246 256 258 261 266 267 267 267 266
294 295 296 297 299 300 299 298 297 296 293 293 292 290 288 283 276 272 266 264 266 264 262 261 259 258 256 255 256 253 250 249 248 249 249 249 249 249 251 249 245 242 240 238 240 241 244 246 248 247 247 248 246 244 248 257 260 263 267 267 267 269 268
293 294 295 297 299 300 302 302 301 300 297 295 294 292 289 284 277 271 264 258 258 257 258 259 257 257 257 256 256 254 251 250 251 251 250 250 250 249 249 249 246 244 242 238 236 240 244 247 247 247 247 245 244 244 250 260 264 264 266 267 268 270 269
293 294 295 297 299 300 302 303 303 302 300 298 295 292 290 284 275 270 266 261 258 256 256 257 257 256 255 254 256 256 253 251 249 251 252 251 251 251 249 248 246 244 239 234 235 241 244 245 246 248 247 245 245 247 254 262 265 265 267 268 268 268 267
293 294 295 296 297 299 300 302 303 303 302 301 298 294 291 285 273 267 265 263 259 256 253 252 254 254 251 251 254 253 253 252 250 250 251 251 250 249 248 248 246 242 237 232 233 239 240 241 245 248 247 245 248 254 259 263 265 266 266 265 265 266 265
292 293 294 295 296 297 298 300 302 304 304 303 302 298 294 289 277 267 264 263 260 256 252 251 252 252 248 248 251 251 250 251 251 250 250 249 248 249 248 246 243 241 238 233 233 237 240 240 243 245 244 244 249 255 259 262 265 266 264 262 262 264 264
291 291 292 293 294 295 297 299 300 303 304 304 304 302 299 296 285 268 261 259 258 255 252 251 252 250 247 248 249 249 248 248 249 250 248 247 248 250 249 246 244 241 237 235 236 239 240 240 241 242 242 243 251 257 258 260 263 264 263 262 261 262 263
287 288 289 290 292 294 296 298 299 301 303 304 305 304 302 301 293 275 263 256 253 256 256 251 248 247 246 246 247 249 249 247 247 247 247 246 247 249 249 247 245 242 239 238 238 236 235 236 239 241 242 243 250 256 258 259 260 260 262 264 263 261 261
283 284 285 286 288 290 292 295 297 298 300 301 303 304 302 302 297 286 274 262 256 263 264 250 244 247 246 243 246 251 249 245 246 248 248 248 248 248 248 247 246 243 239 237 236 233 233 235 238 239 240 243 247 251 256 257 252 251 258 263 260 257 259
283 282 282 281 283 285 287 289 293 294 296 297 299 300 300 300 298 292 287 276 267 268 265 251 248 253 251 246 249 252 247 245 247 246 247 250 251 249 248 245 244 242 238 235 234 234 236 239 240 239 239 244 248 252 256 254 246 246 253 255 252 252 256
284 283 281 280 280 281 283 284 287 290 291 292 293 295 296 297 296 293 290 287 280 273 266 258 258 261 257 252 251 250 249 249 248 244 245 249 252 250 246 243 241 240 238 236 235 237 239 238 238 239 242 246 250 251 254 253 251 251 250 247 247 249 252
283 283 283 282 281 281 281 281 282 285 287 287 288 289 291 292 293 292 289 288 286 280 272 268 269 270 266 259 253 249 250 251 250 248 245 244 248 250 248 247 245 240 236 235 235 237 239 237 237 241 245 248 250 252 253 254 254 253 248 247 248 249 249
282 283 284 284 283 281 280 280 280 280 282 284 285 286 286 287 288 289 288 286 285 283 279 277 279 279 275 271 262 255 253 252 253 253 248 244 246 248 249 251 248 240 236 237 238 241 242 240 240 243 246 248 250 253 255 254 253 252 251 252 252 250 251
280 282 283 284 284 282 281 279 279 278 277 279 281 283 283 283 283 285 286 285 284 283 281 281 280 280 279 279 274 268 263 261 261 260 254 249 249 249 250 250 245 238 235 238 242 246 246 243 242 244 246 249 252 253 254 254 253 253 253 253 252 251 253
279 280 280 281 282 281 280 279 279 278 277 277 278 280 280 279 279 279 281 282 282 281 281 280 279 278 279 279 278 275 271 268 266 263 258 254 252 250 249 245 240 237 239 242 245 247 246 243 242 244 246 248 250 252 253 253 253 253 254 254 252 251 253
279 279 278 278 278 278 277 277 278 278 278 278 278 278 278 276 275 275 276 278 279 279 279 279 278 278 277 277 277 276 275 271 267 263 260 256 252 250 246 240 237 241 244 243 242 242 242 241 241 243 246 246 247 249 250 250 251 253 253 253 252 252 252
278 278 278 277 277 277 276 276 275 276 277 278 278 278 277 276 274 272 272 274 275 276 277 277 277 277 276 276 276 275 274 272 267 263 261 257 254 253 248 240 238 242 246 243 240 240 241 241 238 239 243 244 243 245 247 249 251 252 252 251 250 251 252
279 279 278 278 277 277 277 276 274 273 274 276 277 277 277 277 275 273 271 271 271 272 273 274 274 275 275 275 275 274 272 270 266 263 262 259 255 255 253 245 241 242 244 244 244 246 247 244 239 235 238 241 241 242 246 249 250 251 250 249 248 249 250
280 280 279 279 279 279 278 278 277 275 274 275 276 277 277 278 277 275 272 270 269 270 270 271 271 272 273 273 273 273 271 268 265 262 259 258 255 255 255 250 243 240 242 244 247 249 250 249 244 237 237 240 242 243 247 249 250 251 250 249 248 248 248
280 280 280 280 280 280 280 280 280 279 278 276 276 277 277 277 277 277 275 272 270 269 269 269 269 269 270 271 271 271 269 268 267 263 258 256 256 256 256 252 244 240 242 245 246 247 249 251 247 242 240 241 242 245 247 248 250 251 250 249 249 249 249
281 281 282 281 281 281 281 281 281 281 280 278 277 276 276 277 276 276 275 274 272 270 268 267 267 267 268 268 268 268 267 266 266 263 258 256 258 258 258 253 246 242 244 246 246 247 248 249 248 246 245 245 245 246 248 248 250 250 250 250 250 250 250
282 283 283 283 282 282 282 282 281 281 281 280 279 276 275 276 276 276 275 274 273 271 268 267 266 266 266 266 266 266 266 265 265 263 259 256 257 257 256 255 249 244 245 248 249 249 249 248 248 248 248 249 248 248 248 249 250 250 249 250 250 251 252
283 283 282 282 282 282 282 282 282 281 281 281 280 279 276 275 276 276 274 273 271 270 269 267 265 264 264 265 265 264 264 265 265 263 257 250 249 247 246 248 249 246 244 249 253 252 250 250 249 248 249 250 250 249 249 250 250 249 249 250 251 253 254
283 283 283 282 282 281 281 281 280 280 281 280 280 280 278 276 275 274 274 273 270 268 267 266 265 264 263 264 264 264 264 265 265 264 257 248 246 246 244 244 247 245 243 248 254 254 252 251 250 249 250 251 252 253 253 253 252 251 250 250 253 256 256